Weather History for Ft Lauderdale, FL

Change the Weather History Date:

Saturday, January 5, 2013

  Actual Average Record
Temperature  
Mean Temperature 74 °F 69 °F  
Max Temperature 80 °F 76 °F 87 °F (1924)
Min Temperature 68 °F 61 °F 36 °F (1953)
Degree Days  
Heating Degree Days 0 2  
Month to date heating degree days 0 10  
Since 1 July heating degree days 22 42  
Cooling Degree Days 9 6  
Month to date cooling degree days 44 30  
Year to date cooling degree days 44 30  
Growing Degree Days 24 (Base 50)    
Moisture  
Dew Point 68 °F    
Average Humidity 84    
Maximum Humidity 93    
Minimum Humidity 74    
Precipitation  
Precipitation 0.01 in 0.08 in 1.58 in (1942)
Month to date precipitation 0.01 0.42  
Year to date precipitation 0.01 0.42  
Snow  
Snow 0.00 in - - ()
Month to date snowfall 0.0  
Since 1 July snowfall 0.0  
Snow Depth 0.00 in    
Sea Level Pressure  
Sea Level Pressure 30.20 in    
Wind  
Wind Speed 7 mph (NNE)    
Max Wind Speed 15 mph    
Max Gust Speed 17 mph    
Visibility 10 miles    
Events Rain    
T = Trace of Precipitation, MM = Missing Value Source: NWS Daily Summary

Daily Weather History Graph

Daily Weather History Graph

Search for Another Location

Airport:

Trip Planner

Search our weather history database for the weather conditions in past years. The results will help you decide how hot, cold, wet, or windy it might be!

Date:

Astronomy

Jan. 05, 2013 Rise Set
Actual Time 7:08 AM EST 5:43 PM EST
Civil Twilight 6:43 AM EST 6:08 PM EST
Nautical Twilight 6:15 AM EST 6:37 PM EST
Astronomical Twilight 5:47 AM EST 7:05 PM EST
Moon 12:33 AM EST (1/5) 12:15 PM EST (1/5)
Length of Visible Light 11h 24m
Length of Day
10h 34m
Last Quarter, 44% of the Moon is Illuminated
Jan 5
Last Quarter
Jan 11
New
Jan 18
First Quarter
Jan 26
Full
Feb 3
Last Quarter

Hourly Weather History & Observations

Time (EST) Temp. Dew Point Humidity Pressure Visibility Wind Dir Wind Speed Gust Speed Precip Events Conditions
12:53 AM 70.0 °F 66.9 °F 90% 30.20 in 10.0 mi North 3.5 mph - N/A   Partly Cloudy
1:53 AM 69.1 °F 66.0 °F 90% 30.19 in 10.0 mi North 4.6 mph - N/A   Partly Cloudy
2:53 AM 69.1 °F 66.0 °F 90% 30.18 in 10.0 mi North 5.8 mph - N/A   Scattered Clouds
3:53 AM 68.0 °F 66.0 °F 93% 30.19 in 10.0 mi North 8.1 mph - N/A   Mostly Cloudy
4:23 AM 68.0 °F 66.2 °F 94% 30.19 in 9.0 mi North 6.9 mph - 0.00 in Rain Light Rain
4:53 AM 68.0 °F 66.0 °F 93% 30.19 in 8.0 mi North 8.1 mph - 0.00 in   Mostly Cloudy
5:53 AM 68.0 °F 66.0 °F 93% 30.20 in 9.0 mi North 6.9 mph - N/A   Overcast
6:53 AM 68.0 °F 66.0 °F 93% 30.21 in 10.0 mi North 5.8 mph - N/A   Mostly Cloudy
7:33 AM 68.0 °F 66.2 °F 94% 30.23 in 9.0 mi North 6.9 mph - N/A   Mostly Cloudy
7:53 AM 68.0 °F 66.0 °F 93% 30.23 in 9.0 mi North 6.9 mph - N/A   Mostly Cloudy
8:02 AM 69.8 °F 66.2 °F 88% 30.23 in 10.0 mi North 6.9 mph - N/A   Mostly Cloudy
8:53 AM 69.1 °F 68.0 °F 96% 30.24 in 6.0 mi North 9.2 mph - 0.01 in Rain Light Rain
9:53 AM 72.0 °F 69.1 °F 91% 30.25 in 10.0 mi NNE 9.2 mph - 0.00 in   Mostly Cloudy
10:18 AM 71.6 °F 69.8 °F 94% 30.24 in 10.0 mi NNE 12.7 mph - N/A   Mostly Cloudy
10:53 AM 73.0 °F 68.0 °F 84% 30.24 in 10.0 mi NNE 13.8 mph - N/A   Mostly Cloudy
11:53 AM 77.0 °F 69.1 °F 76% 30.22 in 10.0 mi North 9.2 mph - N/A   Mostly Cloudy
12:22 PM 77.0 °F 69.8 °F 78% 30.21 in 10.0 mi NNE 8.1 mph - N/A   Overcast
12:53 PM 79.0 °F 70.0 °F 74% 30.19 in 10.0 mi NNE 9.2 mph - N/A   Overcast
1:53 PM 79.0 °F 69.1 °F 72% 30.17 in 10.0 mi NE 8.1 mph - N/A   Mostly Cloudy
2:53 PM 78.1 °F 69.1 °F 74% 30.16 in 10.0 mi ENE 9.2 mph - N/A   Mostly Cloudy
3:53 PM 77.0 °F 68.0 °F 74% 30.16 in 10.0 mi NE 9.2 mph - N/A   Scattered Clouds
4:53 PM 75.9 °F 68.0 °F 76% 30.17 in 10.0 mi NE 9.2 mph - N/A   Scattered Clouds
5:53 PM 75.0 °F 68.0 °F 79% 30.18 in 10.0 mi ENE 6.9 mph - N/A   Partly Cloudy
6:53 PM 73.9 °F 68.0 °F 82% 30.19 in 10.0 mi NE 5.8 mph - N/A   Partly Cloudy
7:53 PM 75.0 °F 69.1 °F 82% 30.20 in 10.0 mi ENE 5.8 mph - N/A   Partly Cloudy
8:53 PM 72.0 °F 68.0 °F 87% 30.22 in 10.0 mi North 4.6 mph - N/A   Clear
9:53 PM 70.0 °F 66.9 °F 90% 30.22 in 10.0 mi NNE 4.6 mph - N/A   Partly Cloudy
10:53 PM 70.0 °F 66.9 °F 90% 30.21 in 10.0 mi NNE 3.5 mph - N/A   Clear
11:53 PM 69.1 °F 66.9 °F 93% 30.19 in 10.0 mi Calm Calm - N/A   Partly Cloudy